TimeAKDT,TemperatureF,Dew PointF,Humidity,Sea Level PressureIn,VisibilityMPH,Wind Direction,Wind SpeedMPH,Gust SpeedMPH,PrecipitationIn,Events,Conditions,WindDirDegrees,DateUTC
12:53 AM,39.0,26.1,60,30.09,10.0,WSW,4.6,-,N/A,,Scattered Clouds,250,2013-05-24 08:53:00
1:53 AM,39.0,27.0,62,30.09,10.0,WNW,5.8,-,N/A,,Scattered Clouds,300,2013-05-24 09:53:00
2:53 AM,39.9,28.0,63,30.10,10.0,NW,4.6,-,N/A,,Scattered Clouds,310,2013-05-24 10:53:00
3:53 AM,39.0,28.0,65,30.10,10.0,NW,3.5,-,N/A,,Scattered Clouds,320,2013-05-24 11:53:00
4:53 AM,35.1,28.0,76,30.11,10.0,Calm,Calm,-,N/A,,Scattered Clouds,0,2013-05-24 12:53:00
5:53 AM,41.0,30.0,65,30.10,10.0,WNW,3.5,-,N/A,,Scattered Clouds,300,2013-05-24 13:53:00
6:53 AM,46.0,30.0,54,30.09,10.0,Calm,Calm,-,N/A,,Clear,0,2013-05-24 14:53:00
7:53 AM,52.0,30.0,43,30.08,10.0,NNW,3.5,-,N/A,,Clear,330,2013-05-24 15:53:00
8:53 AM,55.0,30.0,38,30.07,10.0,Calm,Calm,-,N/A,,Clear,0,2013-05-24 16:53:00
9:53 AM,57.9,28.9,33,30.06,10.0,Calm,Calm,-,N/A,,Mostly Cloudy,0,2013-05-24 17:53:00
10:53 AM,61.0,28.0,29,30.06,10.0,Calm,Calm,-,N/A,,Clear,0,2013-05-24 18:53:00
11:53 AM,64.0,28.9,27,30.05,10.0,NNW,5.8,-,N/A,,Scattered Clouds,330,2013-05-24 19:53:00
12:53 PM,64.0,27.0,25,30.04,10.0,Calm,Calm,-,N/A,,Scattered Clouds,0,2013-05-24 20:53:00
1:53 PM,66.9,28.0,23,30.02,10.0,Variable,4.6,-,N/A,,Scattered Clouds,0,2013-05-24 21:53:00
2:53 PM,66.0,25.0,21,30.02,10.0,Calm,Calm,-,N/A,,Scattered Clouds,0,2013-05-24 22:53:00
3:53 PM,66.0,26.1,22,30.01,10.0,East,6.9,-,N/A,,Scattered Clouds,80,2013-05-24 23:53:00
4:53 PM,69.1,26.1,20,30.00,10.0,ESE,6.9,-,N/A,,Scattered Clouds,120,2013-05-25 00:53:00
5:53 PM,66.9,27.0,22,29.98,10.0,ENE,3.5,-,N/A,,Scattered Clouds,60,2013-05-25 01:53:00
6:53 PM,68.0,26.1,21,29.96,10.0,Variable,3.5,-,N/A,,Scattered Clouds,0,2013-05-25 02:53:00
7:53 PM,64.9,27.0,24,29.96,10.0,Calm,Calm,-,N/A,,Mostly Cloudy,0,2013-05-25 03:53:00
8:53 PM,60.1,32.0,35,29.96,10.0,North,3.5,-,N/A,,Mostly Cloudy,10,2013-05-25 04:53:00
9:53 PM,57.0,33.1,40,29.96,10.0,Calm,Calm,-,N/A,,Mostly Cloudy,0,2013-05-25 05:53:00
10:53 PM,54.0,35.1,49,29.96,10.0,Calm,Calm,-,N/A,,Mostly Cloudy,0,2013-05-25 06:53:00
11:53 PM,50.0,33.1,52,29.96,10.0,Calm,Calm,-,N/A,,Mostly Cloudy,0,2013-05-25 07:53:00